Regional Weather Roundup
Issued by NWS Sioux Falls, SD

Home | Current Version | Previous Version | Text Only | Print | Product List | Glossary On
Versions: 1 2 3 4 5 6 7 8 9 10 11 12 13 14 15 16 17 18 19 20 21 22 23 24 25 26 27 28 29 30 31 32 33 34 35 36 37 38 39 40 41 42 43 44 45 46 47 48 49 50
000
ASUS43 KFSD 161510
RWRFSD

WEATHER ROUNDUP FOR SE SOUTH DAKOTA/SW MINNESOTA/NW IOWA
NATIONAL WEATHER SERVICE SIOUX FALLS SD
1000 AM CDT WED APR 16 2014

NOTE: "FAIR" INDICATES FEW OR NO CLOUDS BELOW 12,000 FEET WITH NO
SIGNIFICANT WEATHER AND OR OBSTRUCTIONS TO VISIBILITY.


SDZ038>040-050-052>070-161600-
SOUTHEAST SOUTH DAKOTA

CITY           SKY/WX    TMP DP  RH WIND       PRES   REMARKS
CHAMBERLAIN      N/A     31  29  92 N20G25    29.72R WCI  19
HURON          SNOW      31  28  89 NE20      29.74R VSB 1/2 WCI  19
MITCHELL       CLOUDY    44  35  70 NE20      29.61R
SIOUX FALLS    LGT RAIN  44  32  62 S16       29.63R
WINNER         LGT SNOW  33  31  92 N25       29.74R FOG     WCI  20
YANKTON        CLOUDY    48  25  40 S12       29.62R
$$

MNZ071-072-080-081-089-090-097-098-161600-
SOUTHWEST MINNESOTA

CITY           SKY/WX    TMP DP  RH WIND       PRES   REMARKS
FAIRMONT       CLOUDY    39  27  60 SE20G26   29.78F
JACKSON        CLOUDY    45  30  57 S20G26    29.73R
LUVERNE        CLOUDY    45  30  57 S20       29.66F
MARSHALL       CLOUDY    34  27  75 E17       29.74S WCI  23
MONTEVIDEO     LGT SNOW  30  30 100 SE22G28   29.81S VSB 3/4 WCI  17
PIPESTONE      LGT RAIN  37  34  87 SE12      29.66S
REDWOOD FALLS  LGT SNOW  35  29  78 E9G22     29.81R WCI  28
TRACY          CLOUDY    37  31  77 E12       29.74R
WINDOM         CLOUDY    39  32  75 E10       29.74R
WORTHINGTON    CLOUDY    46  28  49 S17G25    29.72R
$$

IAZ001>003-012>014-020>022-031-032-NEZ013-014-SDZ071-161600-
NORTHWEST IOWA

CITY           SKY/WX    TMP DP  RH WIND       PRES   REMARKS
CHEROKEE       CLOUDY    47  30  52 S20G26    29.71S
DENISON        CLOUDY    50  30  46 S28G40    29.71F
ESTHERVILLE    CLOUDY    45  32  60 S25G35    29.73F
LE MARS        CLOUDY    48  30  49 S24G35    29.64F
ORANGE CITY    CLOUDY    48  25  40 S24G30    29.66F
SHELDON        CLOUDY    46  30  53 S17       29.69R
SIOUX CITY     CLOUDY    51  28  41 S25G32    29.67F
SPENCER        CLOUDY    47  31  53 S23G36    29.72R
STORM LAKE     CLOUDY    46  32  57 S25G33    29.72R
$$

ABBREVIATIONS USED IN REMARKS
   TC - TEMPERATURE IN CELSIUS
  WCI - WIND CHILL INDEX
   HX - HEAT INDEX
  VSB - VISIBILITY




USA.gov is the U.S. government's official web portal to all federal, state and local government web resources and services.